Location: Killam
(52.7910°N, 111.8608°W)
Time: 11:58:16
(UTC+00:00)

FENGYUN 1C DEB - Pass Details

Date: 26 May 2024
Orbit: 795 x 992 km, 98.4° (Epoch: 16 June)

Event Time Altitude Azimuth Distance (km) Brightness Sun altitude
Rises 05:51:28 0° 16° (NNE) 3,315 ? -13.3°
Reaches altitude 10° 05:53:48 10° 19° (NNE) 2,387 ? -13.4°
Maximum altitude 05:59:03 71° 104° (ESE) 862 ? -13.7°
Enters shadow 06:03:15 17° 186° (S) 1,992 ? -13.9°
